Regional Weather Roundup
Issued by NWS Midland/Odessa, TX

Skip options and go directly to product.
Home | Oldest Version | Previous Version | Current Version | All | Graphics & Text | Save Text | Print | Product List | Glossary On

Skip product version selection by date and time.   
870
ASUS44 KMAF 292310
RWRMAF
MIDLAND AREA WEATHER ROUNDUP
NATIONAL WEATHER SERVICE MIDLAND TX
600 PM CDT FRI JUL 29 2016

...IN SOUTHWEST TEXAS AND SOUTHEAST NEW MEXICO...

CITY           SKY/WX    TMP DP  RH WIND       PRES   REMARKS
ALPINE         MOSUNNY   81  58  45 S9        30.15S
ANDREWS        FAIR      92  57  30 SE13      30.01F
ARTESIA        MOSUNNY   95  55  26 SE17G24   29.98F
BIG SPRING     MOSUNNY   96  59  29 SE12      29.99F
CARLSBAD       MOSUNNY   95  52  23 E12       29.97F
DRYDEN           N/A     87  67  51 SE16G23   29.97F
FORT STOCKTON  MOSUNNY   92  59  33 E15G22    29.98F
GUAD PASS      MOSUNNY   85  52  32 E28G38    30.13F
HOBBS          MOSUNNY   91  52  25 SE14G22   30.03F
MARFA          LGT RAIN  66  64  93 SW12      30.17S
MIDLAND AIRPK  SUNNY     95  57  27 SE15      29.99F
MIDLAND INTL   SUNNY     95  57  27 SE18      29.98F
ODESSA         MOSUNNY   95  58  28 SE17      30.00F
PECOS          SUNNY     97  56  25 E12G23    29.93F
PRESIDIO       FAIR      83  65  54 E6        30.00S
SEMINOLE       MOSUNNY   93  53  25 SE13G22   30.02F
SNYDER           N/A     94  62  34 SE14      29.98F
WINK           SUNNY     95  56  26 SE17G26   29.95F
$$
...OTHER STATIONS IN TEXAS...

CITY           SKY/WX    TMP DP  RH WIND       PRES   REMARKS
ABILENE        PTSUNNY   91  67  44 SE13      29.96F
AMARILLO       SUNNY     90  63  40 SE18G25   30.04F
AUSTIN         MOSUNNY   94  68  42 S3        29.93F
BROWNSVILLE    SUNNY     92  75  57 SE15G25   29.92S HX 103
CORPUS CHRISTI MOSUNNY   93  73  52 SE16      29.91F HX 102
DALLAS FTW     PTSUNNY   94  69  44 S10       29.90F
DEL RIO        MOSUNNY   93  68  43 E8G17     29.92F
EL PASO        MOSUNNY   96  46  18 SE15G25   29.96F
HOUSTON INT    PTSUNNY   93  72  50 SE9       29.94F HX 101
LUBBOCK        MOSUNNY   93  57  29 S18       30.00F
SAN ANGELO     CLOUDY    94  60  32 S5        29.96F
SAN ANTONIO    MOSUNNY   92  68  45 SE12G18   29.95F
WACO           MOSUNNY   93  68  43 W3        29.92F
WICHITA FALLS  NOT AVBL
$$
...OTHER LOCATIONS IN NEW MEXICO...

CITY           SKY/WX    TMP DP  RH WIND       PRES   REMARKS
ALAMAGORDO     MOSUNNY   97  46  17 SW10G18   29.98F
ALBUQUERQUE    CLOUDY    88  41  19 S17G25    30.14R
CANNON AFB     SUNNY     92  52  25 S14G20    30.04F
CLOVIS         MOSUNNY   91  55  29 S14G24    30.05S
HOLLOMAN AFB   PTSUNNY   98  48  18 S15       29.96F
ROSWELL        MOSUNNY   96  50  20 SE18G25   29.98F
RUIDOSO          N/A     81  43  26 SE13G22   30.25F
SANTA FE       TSTM      67  50  54 W22G47    30.20R
TRUTH OR CONSE CLOUDY    90  46  21 NW13      30.07S
TUCUMCARI      CLOUDY    96  48  19 S20G26    29.98F
$$

USA.gov is the U.S. government's official web portal to all federal, state and local government web resources and services.